EW5773 Weather Reports


Display with metric or nautical units.
time (UTC)temp
F
wind
direction
speed
MPH
gust
MPH
rain 1hr
in
rain 24hr
in
rain mn
in
humidity
%
barometer
mb
20260509003014 50 11 3.0 5.0 0.00 0.00 0.00 85 1014.3
20260509001511 50 26 3.0 4.0 0.00 0.00 0.00 84 1014.6
20260509000013 51 28 3.0 4.0 0.00 0.00 0.00 82 1014.6
20260508234511 51 29 2.0 4.0 0.00 0.00 0.00 81 1014.8
20260508233009 52 30 2.0 5.0 0.00 0.00 0.00 80 1014.9
20260508231509 52 31 2.0 4.0 0.00 0.00 0.00 80 1015.1
20260508230008 52 30 1.0 4.0 0.00 0.00 0.00 79 1014.9
20260508224512 53 30 2.0 4.0 0.00 0.00 0.00 78 1015.0
20260508223040 53 30 2.0 5.0 0.00 0.00 0.00 77 1014.8
20260508221510 54 29 2.0 4.0 0.00 0.00 0.00 76 1015.0
20260508220103 54 29 2.0 5.0 0.00 0.00 0.00 74 1014.9
20260508214531 55 28 2.0 4.0 0.00 0.00 0.00 73 1015.0
20260508213019 55 28 3.0 5.0 0.00 0.00 0.00 71 1014.8
20260508211516 56 27 2.0 5.0 0.00 0.00 0.00 70 1014.9
20260508210017 56 26 3.0 6.0 0.00 0.00 0.00 68 1015.0
20260508204517 57 24 2.0 6.0 0.00 0.00 0.00 66 1014.9
20260508203018 57 15 3.0 6.0 0.00 0.00 0.00 64 1014.9
20260508201550 58 21 2.0 5.0 0.00 0.00 0.00 64 1014.8
20260508200019 58 21 3.0 6.0 0.00 0.00 0.00 64 1014.5
20260508194509 59 19 3.0 6.0 0.00 0.00 0.00 63 1014.4
20260508193008 60 25 3.0 6.0 0.00 0.00 0.00 62 1014.3
20260508191508 62 24 2.0 4.0 0.00 0.00 0.00 60 1014.2
20260508190039 63 25 1.0 5.0 0.00 0.00 0.00 56 1014.1
20260508184516 64 24 2.0 5.0 0.00 0.00 0.00 54 1014.0
20260508183012 65 360 2.0 5.0 0.00 0.00 0.00 53 1013.9
20260508181504 65 360 2.0 8.0 0.00 0.00 0.00 47 1013.9
20260508180005 66 39 4.0 9.0 0.00 0.00 0.00 47 1013.7
20260508174614 67 54 3.0 9.0 0.00 0.00 0.00 45 1013.7
20260508173105 68 36 3.0 9.0 0.00 0.00 0.00 45 1013.6
20260508171520 68 48 6.0 10.0 0.00 0.00 0.00 45 1013.6
20260508170025 68 355 3.0 9.0 0.00 0.00 0.00 46 1013.5
20260508164522 68 34 5.0 10.0 0.00 0.00 0.00 45 1013.4
20260508163017 70 355 5.0 9.0 0.00 0.00 0.00 42 1013.5
20260508161514 70 88 4.0 8.0 0.00 0.00 0.00 40 1013.5
20260508160011 70 52 1.0 5.0 0.00 0.00 0.00 40 1013.6
20260508154512 70 83 4.0 8.0 0.00 0.00 0.00 40 1013.7
20260508153017 68 82 4.0 7.0 0.00 0.00 0.00 43 1013.7
20260508151507 68 47 5.0 10.0 0.00 0.00 0.00 42 1013.8
20260508150008 70 44 4.0 11.0 0.00 0.00 0.00 43 1013.7
20260508144508 70 42 4.0 9.0 0.00 0.00 0.00 43 1013.6
20260508143004 69 78 5.0 12.0 0.00 0.00 0.00 42 1013.6
20260508141510 68 43 4.0 12.0 0.00 0.00 0.00 42 1013.9
20260508140103 69 5 5.0 12.0 0.00 0.00 0.00 43 1013.9
20260508134518 70 109 3.0 11.0 0.00 0.00 0.00 39 1013.9
20260508133015 67 26 1.0 9.0 0.00 0.00 0.00 43 1013.9
20260508131514 67 40 6.0 13.0 0.00 0.00 0.00 45 1014.1
20260508130028 67 43 5.0 12.0 0.00 0.00 0.00 44 1014.1
20260508124545 68 42 3.0 13.0 0.00 0.00 0.00 45 1014.1
20260508123015 68 45 7.0 14.0 0.00 0.00 0.00 46 1014.1
20260508121509 67 69 3.0 11.0 0.00 0.00 0.00 49 1014.2
20260508120006 67 91 4.0 11.0 0.00 0.00 0.00 49 1014.3
20260508114505 67 88 4.0 13.0 0.00 0.00 0.00 48 1014.4
20260508113005 67 74 5.0 16.0 0.00 0.00 0.00 49 1014.5
20260508111505 67 90 2.0 11.0 0.00 0.00 0.00 48 1014.5
20260508110110 65 62 5.0 12.0 0.00 0.00 0.00 51 1014.6
20260508104521 66 57 5.0 14.0 0.00 0.00 0.00 48 1014.7
20260508103021 66 83 5.0 12.0 0.00 0.00 0.00 53 1014.8
20260508101515 65 360 6.0 10.0 0.00 0.00 0.00 54 1014.8
20260508100012 64 360 4.0 12.0 0.00 0.00 0.00 57 1014.8
20260508094512 63 86 5.0 13.0 0.00 0.00 0.00 60 1014.9
20260508093012 62 34 5.0 14.0 0.00 0.00 0.00 60 1014.9
20260508091513 62 44 8.0 15.0 0.00 0.00 0.00 64 1014.7
20260508090010 61 82 8.0 14.0 0.00 0.00 0.00 66 1014.8
20260508084505 61 40 7.0 12.0 0.00 0.00 0.00 69 1014.7
20260508083003 60 40 5.0 12.0 0.00 0.00 0.00 70 1014.8
20260508081509 59 103 3.0 12.0 0.00 0.00 0.00 73 1014.8
20260508080111 58 49 5.0 10.0 0.00 0.00 0.00 74 1014.8
20260508074522 58 90 6.0 10.0 0.00 0.00 0.00 76 1014.8
20260508073021 56 43 4.0 10.0 0.00 0.00 0.00 79 1014.7
20260508071519 55 34 5.0 9.0 0.00 0.00 0.00 82 1014.7
20260508070017 54 42 6.0 10.0 0.00 0.00 0.00 85 1014.7
20260508064512 52 50 3.0 6.0 0.00 0.00 0.00 88 1014.8
20260508063015 51 49 2.0 5.0 0.00 0.00 0.00 90 1014.8
20260508061511 49 40 3.0 6.0 0.00 0.00 0.00 91 1014.6
20260508060011 48 39 2.0 4.0 0.00 0.00 0.00 91 1014.6
20260508054508 48 41 1.0 4.0 0.00 0.00 0.00 91 1014.6
20260508053006 48 41 1.0 2.0 0.00 0.00 0.00 91 1014.5
20260508051506 47 41 1.0 3.0 0.00 0.00 0.00 92 1014.4
20260508050007 46 41 0.0 2.0 0.00 0.00 0.00 91 1014.3
20260508044505 46 40 0.0 3.0 0.00 0.00 0.00 91 1014.3
20260508043002 46 40 2.0 4.0 0.00 0.00 0.00 91 1014.2
20260508041603 46 40 1.0 4.0 0.00 0.00 0.00 91 1014.2
20260508034613 46 40 2.0 5.0 0.00 0.00 0.00 90 1014.2
20260508033105 46 40 2.0 3.0 0.00 0.00 0.00 90 1014.3
20260508031521 46 40 1.0 3.0 0.00 0.00 0.00 90 1014.4
20260508030023 46 40 0.0 3.0 0.00 0.00 0.00 90 1014.5
20260508024516 46 40 0.0 3.0 0.00 0.00 0.00 89 1014.5
20260508023020 46 40 1.0 2.0 0.00 0.00 0.00 89 1014.6
20260508021559 46 40 1.0 4.0 0.00 0.00 0.00 89 1014.5
20260508020026 47 40 3.0 5.0 0.00 0.00 0.00 88 1014.4
20260508014515 47 48 3.0 6.0 0.00 0.00 0.00 88 1014.4
20260508013014 47 51 2.0 5.0 0.00 0.00 0.00 88 1014.3
20260508011515 47 55 3.0 7.0 0.00 0.00 0.00 87 1014.3
20260508010013 47 81 2.0 4.0 0.00 0.00 0.00 85 1014.5
20260508004513 48 83 0.0 2.0 0.00 0.00 0.00 85 1014.7